This demonstration page uses our WeatherBlox Daily Observations layout. Learn more.

Left ArrowRight Arrow

Hourly Observations for September 30, 2015

Temp ( °F °C ) Dew Point ( °F °C ) Humidity (%) Winds ( mph kmh ) Pressure ( in mb ) Visibility ( mi km ) Precip ( " mm )
12:06 am 00:06 Cloudy 67 19.4 65 18.3 93 93 N 5 7 29.94 1014 7 11.26538 0 0
12:36 am 00:36 Cloudy with Light Rain 65 18.3 62 16.7 90 90 NNE 18 30 29.94 1014 6 9.65604 0 0.0254
12:53 am 00:53 Cloudy 63 17.2 59 15 87 87 N 15 24 29.94 1014 7 11.26538 0 0.0254
1:53 am 01:53 Cloudy 62 16.7 58 14.4 86 86 NNE 10 17 29.95 1014 10 16.0934 0 0.0254
2:15 am 02:15 Cloudy 62 16.7 58 14.4 86 86 NNE 9 15 29.97 1015 10 16.0934 0 0
2:53 am 02:53 Cloudy 62 16.7 57 13.9 84 84 N 8 13 29.95 1014 10 16.0934 0 0
3:53 am 03:53 Cloudy with Light Rain 61 16.1 57 13.9 87 87 VRB 7 11 29.95 1014 10 16.0934 0.01 0.254
4:53 am 04:53 Cloudy 61 16.1 56 13.3 84 84 N 6 9 29.95 1014 10 16.0934 0 0.0254
5:08 am 05:08 Cloudy 61 16.1 56 13.3 84 84 N 7 11 29.97 1015 10 16.0934 0 0
5:53 am 05:53 Cloudy 60 15.6 55 12.8 84 84 N 6 9 29.96 1014 10 16.0934 0 0
6:53 am 06:53 Cloudy 59 15 54 12.2 83 83 N 9 15 29.98 1015 10 16.0934 0 0
7:53 am 07:53 Mostly Cloudy 58 14.4 53 11.7 84 84 N 9 15 29.99 1016 10 16.0934 0 0
8:04 am 08:04 Mostly Cloudy 58 14.4 53 11.7 84 84 N 8 13 30 1016 10 16.0934 0 0
8:37 am 08:37 Mostly Cloudy 59 15 54 12.2 83 83 NNE 9 15 30 1016 10 16.0934 0 0
8:53 am 08:53 Cloudy 59 15 54 12.2 83 83 N 12 19 30.01 1016 10 16.0934 0 0
9:53 am 09:53 Cloudy 60 15.6 54 12.2 80 80 N 12 19 30.02 1017 10 16.0934 0 0
10:53 am 10:53 Cloudy 62 16.7 55 12.8 78 78 N 9 15 30.04 1017 10 16.0934 0 0
11:53 am 11:53 Cloudy 62 16.7 54 12.2 75 75 NNE 12 19 30.05 1018 10 16.0934 0 0
12:53 pm 12:53 Cloudy 63 17.2 54 12.2 73 73 NE 12 19 30.06 1018 10 16.0934 0 0
1:53 pm 13:53 Cloudy 66 18.9 55 12.8 68 68 N 12 19 30.05 1018 10 16.0934 0 0
2:30 pm 14:30 Cloudy 67 19.4 55 12.8 66 66 NNE 9 15 30.06 1018 10 16.0934 0 0
2:53 pm 14:53 Mostly Cloudy 67 19.4 54 12.2 63 63 NE 10 17 30.04 1017 10 16.0934 0 0
3:53 pm 15:53 Mostly Cloudy 68 20 54 12.2 61 61 N 10 17 30.03 1017 10 16.0934 0 0
4:53 pm 16:53 Sunny 68 20 53 11.7 59 59 E 9 15 30.02 1017 10 16.0934 0 0
5:53 pm 17:53 Mostly Sunny 67 19.4 54 12.2 63 63 ENE 7 11 30.02 1017 10 16.0934 0 0
6:53 pm 18:53 Mostly Sunny 66 18.9 54 12.2 65 65 ENE 5 7 30.04 1017 10 16.0934 0 0
7:53 pm 19:53 Mostly Cloudy 65 18.3 52 11.1 63 63 NNE 7 11 30.04 1017 10 16.0934 0 0
8:53 pm 20:53 Cloudy 65 18.3 49 9.4 56 56 NNE 13 20 30.07 1018 10 16.0934 0 0
9:53 pm 21:53 Cloudy 62 16.7 50 10 65 65 NNE 6 9 30.08 1019 10 16.0934 0 0
10:53 pm 22:53 Partly Cloudy 61 16.1 48 8.9 63 63 ENE 13 20 30.09 1019 10 16.0934 0 0
11:53 pm 23:53 Clear 59 15 48 8.9 67 67 NE 7 11 30.09 1019 10 16.0934 0 0

Powered by AerisWeather